Dublin, Ireland

1:07 PM IST on September 22, 2017 (GMT +0100)
Dublin International

Weather History for EIDW - November, 2012

Change the Weather History Date:

Wednesday, November 7, 2012

  Actual Average Record
Temperature  
Mean Temperature 48 °F -  
Max Temperature 51 °F 49 °F 57 °F (2003)
Min Temperature 44 °F 40 °F 28 °F (2011)
Degree Days  
Heating Degree Days 18    
Moisture  
Dew Point 44 °F    
Average Humidity 82    
Maximum Humidity 87    
Minimum Humidity 68    
Precipitation  
Precipitation 0.00 in 0.09 in - ()
Sea Level Pressure  
Sea Level Pressure 30.14 in    
Wind  
Wind Speed 18 mph ()    
Max Wind Speed 24 mph    
Max Gust Speed 37 mph    
Visibility 6.6 miles    
Events Rain    
Averages and records for this station are not official NWS values.
T = Trace of Precipitation, MM = Missing Value Source: Averaged Metar Reports

Daily Weather History Graph

Daily Weather History Graph

Search for Another Location

Airport or City:

Trip Planner

Search our weather history database for the weather conditions in past years. The results will help you decide how hot, cold, wet, or windy it might be!

Date:

Astronomy

Nov. 07, 2012 Rise Set
Actual Time 7:35 AM GMT 4:40 PM GMT
Civil Twilight 6:58 AM GMT 5:18 PM GMT
Nautical Twilight 6:16 AM GMT 6:00 PM GMT
Astronomical Twilight 5:35 AM GMT 6:40 PM GMT
Moon No Moon Rise 1:36 PM GMT (11/7)
Length of Visible Light 10h 20m
Length of Day
9h 04m
Last Quarter, 45% of the Moon is Illuminated
Nov 7
Last Quarter
Nov 13
New
Nov 20
First Quarter
Nov 28
Full
Dec 6
Last Quarter

Hourly Weather History & Observations

Time (GMT) Temp. Windchill Dew Point Humidity Pressure Visibility Wind Dir Wind Speed Gust Speed Precip Events Conditions
12:00 AM 46 °F - 41 °F 75% 30.26 in 16 mi West 20.1 mph - -   Overcast
12:00 AM 46.4 °F 39.0 °F 41.0 °F 81% 30.24 in 6.2 mi West 19.6 mph - N/A   Mostly Cloudy
12:30 AM 46.4 °F 39.2 °F 41.0 °F 81% 30.24 in 6.2 mi West 18.4 mph - N/A   Mostly Cloudy
1:00 AM 46.4 °F 39.0 °F 41.0 °F 81% 30.24 in 6.2 mi West 19.6 mph - N/A   Mostly Cloudy
1:30 AM 46.4 °F 38.7 °F 41.0 °F 81% 30.24 in 6.2 mi West 20.7 mph - N/A   Mostly Cloudy
2:00 AM 46.4 °F 39.0 °F 41.0 °F 81% 30.21 in 6.2 mi West 19.6 mph - N/A   Mostly Cloudy
2:30 AM 46.4 °F 39.0 °F 41.0 °F 81% 30.21 in 6.2 mi West 19.6 mph - N/A   Mostly Cloudy
3:00 AM 46.4 °F 39.0 °F 41.0 °F 81% 30.21 in 6.2 mi West 19.6 mph - N/A   Mostly Cloudy
3:30 AM 46.4 °F 39.2 °F 41.0 °F 81% 30.21 in 6.2 mi West 18.4 mph - N/A   Mostly Cloudy
4:00 AM 46.4 °F 39.8 °F 41.0 °F 81% 30.21 in 6.2 mi West 16.1 mph - N/A   Mostly Cloudy
4:30 AM 48.2 °F - 41.0 °F 76% 30.21 in 6.2 mi West 17.3 mph - N/A   Mostly Cloudy
5:00 AM 48.2 °F - 41.0 °F 76% 30.21 in 6.2 mi WSW 17.3 mph - N/A   Mostly Cloudy
5:30 AM 48.2 °F - 41.0 °F 76% 30.21 in 6.2 mi WSW 15.0 mph - N/A   Mostly Cloudy
6:00 AM 48 °F - 41 °F 70% 30.22 in 16 mi WSW 15.7 mph - -   Overcast
6:00 AM 48.2 °F - 41.0 °F 76% 30.21 in 6.2 mi WSW 15.0 mph - N/A   Mostly Cloudy
6:30 AM 48.2 °F - 41.0 °F 76% 30.18 in 6.2 mi WSW 18.4 mph - N/A   Mostly Cloudy
7:00 AM 48.2 °F - 41.0 °F 76% 30.18 in 6.2 mi WSW 16.1 mph - N/A   Light Drizzle
7:30 AM 48.2 °F - 42.8 °F 82% 30.18 in 6.2 mi WSW 18.4 mph - N/A   Light Drizzle
8:00 AM 48.2 °F - 42.8 °F 82% 30.18 in 6.2 mi WSW 15.0 mph - N/A   Mostly Cloudy
8:30 AM 48.2 °F - 42.8 °F 82% 30.18 in 6.2 mi WSW 18.4 mph - N/A   Mostly Cloudy
9:00 AM 48.2 °F - 42.8 °F 82% 30.18 in 6.2 mi WSW 21.9 mph - N/A   Mostly Cloudy
9:30 AM 48.2 °F - 42.8 °F 82% 30.18 in 6.2 mi WSW 19.6 mph - N/A   Scattered Clouds
10:00 AM 48.2 °F - 42.8 °F 82% 30.18 in 6.2 mi WSW 19.6 mph - N/A   Mostly Cloudy
10:30 AM 48.2 °F - 42.8 °F 82% 30.18 in 6.2 mi WSW 18.4 mph - N/A Rain Light Rain
11:00 AM 50.0 °F - 44.6 °F 82% 30.18 in 6.2 mi WSW 18.4 mph - N/A   Mostly Cloudy
11:30 AM 50.0 °F - 42.8 °F 76% 30.15 in 6.2 mi WSW 21.9 mph - N/A   Mostly Cloudy
12:00 PM 51 °F - 44 °F 68% 30.17 in 22 mi WSW 22.4 mph - -   Partly Cloudy
12:00 PM 50.0 °F - 44.6 °F 82% 30.15 in 6.2 mi WSW 23.0 mph - N/A   Scattered Clouds
12:30 PM 51.8 °F - 44.6 °F 76% 30.12 in 6.2 mi WSW 24.2 mph 36.8 mph N/A   Scattered Clouds
1:00 PM 50.0 °F - 44.6 °F 82% 30.12 in 6.2 mi WSW 21.9 mph - N/A   Mostly Cloudy
1:30 PM 50.0 °F - 44.6 °F 82% 30.12 in 6.2 mi SW 20.7 mph - N/A   Mostly Cloudy
2:00 PM 50.0 °F - 44.6 °F 82% 30.12 in 6.2 mi WSW 18.4 mph - N/A   Mostly Cloudy
2:30 PM 50.0 °F - 46.4 °F 87% 30.09 in 3.1 mi WSW 18.4 mph - N/A Rain Light Rain
3:00 PM 51.8 °F - 46.4 °F 82% 30.09 in 6.2 mi WSW 15.0 mph - N/A Rain Light Rain
3:30 PM 51.8 °F - 44.6 °F 76% 30.09 in 6.2 mi WSW 18.4 mph - N/A   Mostly Cloudy
4:00 PM 51.8 °F - 46.4 °F 82% 30.06 in 6.2 mi WSW 19.6 mph - N/A   Light Drizzle
4:30 PM 51.8 °F - 46.4 °F 82% 30.09 in 6.2 mi WSW 19.6 mph - N/A   Light Drizzle
5:00 PM 50.0 °F - 46.4 °F 87% 30.09 in 6.2 mi WSW 21.9 mph - N/A   Light Drizzle
5:30 PM 50.0 °F - 46.4 °F 87% 30.06 in 6.2 mi WSW 18.4 mph - N/A   Light Drizzle
6:00 PM 50 °F - 47 °F 86% 30.09 in 11 mi WSW 20.1 mph - - Rain Light Drizzle
6:00 PM 50.0 °F - 46.4 °F 87% 30.06 in 6.2 mi WSW 19.6 mph - N/A   Light Drizzle
6:30 PM 50.0 °F - 46.4 °F 87% 30.06 in 6.2 mi WSW 19.6 mph - N/A   Light Drizzle
7:00 PM 50.0 °F - 46.4 °F 87% 30.09 in 6.2 mi West 18.4 mph - N/A   Mostly Cloudy
7:30 PM 50.0 °F - 46.4 °F 87% 30.09 in 6.2 mi West 18.4 mph - N/A   Mostly Cloudy
8:00 PM 48.2 °F - 44.6 °F 87% 30.06 in 6.2 mi WSW 16.1 mph - N/A   Mostly Cloudy
8:26 PM 48.2 °F - 44.6 °F 87% 30.06 in 6.2 mi WSW 16.1 mph - N/A   Mostly Cloudy
8:43 PM 48.2 °F - 44.6 °F 87% 30.06 in 6.2 mi West 23.0 mph - N/A   Mostly Cloudy
8:49 PM 48.2 °F - 44.6 °F 87% 30.06 in 6.2 mi West 23.0 mph - N/A   Mostly Cloudy
9:00 PM 48.2 °F - 44.6 °F 87% 30.06 in 6.2 mi West 19.6 mph - N/A   Mostly Cloudy
9:30 PM 48.2 °F - 44.6 °F 87% 30.06 in 6.2 mi WSW 19.6 mph - N/A   Mostly Cloudy
10:00 PM 48.2 °F - 44.6 °F 87% 30.06 in 6.2 mi WSW 18.4 mph - N/A   Light Drizzle
10:30 PM 48.2 °F - 44.6 °F 87% 30.06 in 6.2 mi WSW 19.6 mph - N/A   Mostly Cloudy
11:00 PM 48.2 °F - 44.6 °F 87% 30.06 in 6.2 mi WSW 18.4 mph - N/A   Mostly Cloudy
11:30 PM 48.2 °F - 44.6 °F 87% 30.06 in 6.2 mi West 20.7 mph - N/A   Mostly Cloudy